Location: Avoca
(45.7167°N, 74.7000°W)
Time: 16:46:29
(UTC+00:00)

BlueWalker 3 - Pass Details

Date: 03 December 2022
Orbit: 499 x 517 km, 53.2° (Epoch: 01 February)

Event Time Altitude Azimuth Distance (km) Brightness Sun altitude
Rises 00:01:12 0° 299° (WNW) 2,625 6.4 -28.1°
Reaches altitude 10° 00:03:33 10° 309° (NW) 1,734 5.2 -28.5°
Enters shadow 00:04:47 18° 319° (NW) 1,311 4.4 -28.7°
